Tracking 26321 objects as of 27-Nov-2022
HD Live streaming from Space Station
objects crossing your sky now

STARLINK-3941

Track STARLINK-3941 now!
10-day predictions
STARLINK-3941 is classified as:


NORAD ID: 52638
Int'l Code: 2022-052AS
Perigee: 545.2 km
Apogee: 548.6 km
Inclination: 53.2 °
Period: 95.4 minutes
Semi major axis: 6917 km
RCS: Unknown
Launch date: May 14, 2022
Source: United States (US)
Launch site: AIR FORCE EASTERN TEST RANGE (AFETR)
aabbcc
Your satellite tracking list
Your tracking list is empty




NASA's NSSDC Master Catalog

Two Line Element Set (TLE):
1 52638U 22052AS  22330.75557255  .00000807  00000-0  68798-4 0  9993
2 52638  53.2188 251.3479 0002449  33.3223 326.7923 15.08844497 30802
Source of the keplerian elements: AFSPC